sat.trackr.live / text

‹ back to catalog

STARLINK-32178

NORAD 60413 · 2024-141R

PAYLOAD ACTIVE UNKNOWN

§ Identity

Operator
Country
US
Launch date
2024-08-10
Launch site
AFETR
Launch vehicle
Mass (kg)
RCS (m²)

Purposes: comms

External: N2YO · Heavens-Above · Gunter

§ Orbital elements

Epoch: 2026-05-24T23:43:14.399040Z

Period
93.85 min
Inclination
53.1591°
Eccentricity
0.0001104
Mean motion
15.34392405 rev/d
Perigee alt
462.0 km
Apogee alt
463.5 km
Semi-major
6,840.9 km
B*
4.9221e-5
RAAN
247.3803°
Arg perigee
95.3400°
Mean anomaly
264.7729°
Rev number
10,121

§ Raw data

STARLINK-321781 60413U 24141R   26144.98836110  .00001287  00000+0  49221-4 0  99982 60413  53.1591 247.3803 0001104  95.3400 264.7729 15.34392405101212

JSON: /api/v1/satellites/60413 · /tle

For live sub-satellite position, see the globe view (requires WebGL).

§ Visibility from observer

Set your observer location to see the next 7 days of passes ≥ 10°. The values pass through the URL so the page stays shareable.

No JS? Fill the form by hand. The geolocation button needs JavaScript.